Weather History for Burlington, VT

Change the Weather History Date:

Sunday, February 17, 2013

  Actual Average Record
Temperature  
Mean Temperature 15 °F 22 °F  
Max Temperature 18 °F 31 °F 53 °F (1981)
Min Temperature 11 °F 13 °F -21 °F (1963)
Degree Days  
Heating Degree Days 50 43  
Month to date heating degree days 754 760  
Since 1 July heating degree days 4490 4954  
Cooling Degree Days 0 0  
Month to date cooling degree days 0 0  
Year to date cooling degree days 0 0  
Moisture  
Dew Point 2 °F    
Average Humidity 62    
Maximum Humidity 73    
Minimum Humidity 51    
Precipitation  
Precipitation T in 0.06 in 0.80 in (1954)
Month to date precipitation 0.65 1.06  
Year to date precipitation 1.76 3.12  
Snow  
Snow T in 0.60 in 9.40 in (1952)
Month to date snowfall 12.0 10.2  
Since 1 July snowfall 61.1 54.6  
Snow Depth 1.00 in    
Sea Level Pressure  
Sea Level Pressure 29.82 in    
Wind  
Wind Speed 15 mph (NNW)    
Max Wind Speed 25 mph    
Max Gust Speed 33 mph    
Visibility 10 miles    
Events Snow    
T = Trace of Precipitation, MM = Missing Value Source: NWS Daily Summary

Daily Weather History Graph

Daily Weather History Graph

Search for Another Location

Airport:

Trip Planner

Search our weather history database for the weather conditions in past years. The results will help you decide how hot, cold, wet, or windy it might be!

Date:

Astronomy

Feb. 17, 2013 Rise Set
Actual Time 6:49 AM EST 5:24 PM EST
Civil Twilight 6:19 AM EST 5:54 PM EST
Nautical Twilight 5:45 AM EST 6:28 PM EST
Astronomical Twilight 5:11 AM EST 7:02 PM EST
Moon 10:21 AM EST (2/17) 12:35 AM EST (2/17)
Length of Visible Light 11h 34m
Length of Day
10h 35m
Waxing Crescent, 49% of the Moon is Illuminated
Feb 17
Waxing Crescent
Feb 17
First Quarter
Feb 25
Full
Mar 4
Last Quarter
Mar 11
New

Hourly Weather History & Observations

Time (EST) Temp. Windchill Dew Point Humidity Pressure Visibility Wind Dir Wind Speed Gust Speed Precip Events Conditions
12:54 AM 17.1 °F 6.6 °F 3.9 °F 56% 29.92 in 10.0 mi North 8.1 mph - N/A   Clear
1:54 AM 16.0 °F 3.6 °F 3.9 °F 59% 29.89 in 10.0 mi North 10.4 mph - N/A   Partly Cloudy
2:54 AM 15.1 °F 3.3 °F 3.9 °F 61% 29.88 in 10.0 mi North 9.2 mph - N/A   Scattered Clouds
3:54 AM 12.9 °F 0.7 °F 3.9 °F 67% 29.88 in 10.0 mi North 9.2 mph - N/A   Partly Cloudy
4:44 AM 12.2 °F -0.2 °F 3.2 °F 67% 29.85 in 10.0 mi North 9.2 mph - N/A   Mostly Cloudy
4:54 AM 12.0 °F -2.0 °F 3.9 °F 70% 29.87 in 10.0 mi NNW 11.5 mph 18.4 mph N/A   Mostly Cloudy
5:54 AM 12.0 °F -2.7 °F 3.9 °F 70% 29.86 in 9.0 mi NNW 12.7 mph 23.0 mph 0.00 in Snow Light Snow
6:24 AM 10.4 °F -4.8 °F 3.2 °F 73% 29.84 in 9.0 mi North 12.7 mph - 0.00 in Snow Light Snow
6:44 AM 10.4 °F -4.1 °F 3.2 °F 73% 29.84 in 9.0 mi North 11.5 mph - 0.00 in Snow Light Snow
6:54 AM 10.9 °F -4.1 °F 3.9 °F 73% 29.86 in 9.0 mi North 12.7 mph - 0.00 in Snow Light Snow
7:29 AM 10.4 °F -7.2 °F 3.2 °F 73% 29.83 in 7.0 mi NNW 17.3 mph 25.3 mph 0.00 in Snow Light Snow
7:40 AM 10.4 °F -6.6 °F 3.2 °F 73% 29.82 in 6.0 mi NNW 16.1 mph - 0.00 in Snow Light Snow
7:54 AM 10.9 °F -5.9 °F 3.9 °F 73% 29.83 in 5.0 mi North 16.1 mph - 0.00 in Snow Light Snow
8:17 AM 10.4 °F -6.0 °F 3.2 °F 73% 29.80 in 9.0 mi NNW 15.0 mph - 0.00 in Snow Light Snow
8:46 AM 10.4 °F -5.4 °F 3.2 °F 73% 29.80 in 10.0 mi NNW 13.8 mph - 0.00 in   Overcast
8:54 AM 10.9 °F -7.0 °F 3.0 °F 70% 29.81 in 10.0 mi NNW 18.4 mph 23.0 mph 0.00 in   Overcast
9:20 AM 10.4 °F -7.7 °F 1.4 °F 67% 29.78 in 10.0 mi NNW 18.4 mph 25.3 mph N/A   Overcast
9:54 AM 10.9 °F -6.5 °F 1.9 °F 67% 29.80 in 10.0 mi NNW 17.3 mph 26.5 mph N/A   Overcast
10:45 AM 12.2 °F -4.8 °F 1.4 °F 62% 29.76 in 10.0 mi North 17.3 mph 25.3 mph N/A   Overcast
10:54 AM 12.0 °F -5.6 °F 1.0 °F 61% 29.78 in 10.0 mi NNW 18.4 mph 25.3 mph N/A   Overcast
11:46 AM 12.2 °F -4.8 °F 1.4 °F 62% 29.75 in 10.0 mi NNW 17.3 mph 24.2 mph N/A   Overcast
11:54 AM 12.9 °F -3.9 °F 1.9 °F 62% 29.76 in 10.0 mi NNW 17.3 mph 23.0 mph N/A   Overcast
12:49 PM 12.2 °F -5.3 °F 1.4 °F 62% 29.73 in 10.0 mi NNW 18.4 mph 25.3 mph N/A   Mostly Cloudy
12:54 PM 14.0 °F -2.0 °F 1.0 °F 56% 29.75 in 10.0 mi North 16.1 mph 25.3 mph N/A   Mostly Cloudy
1:54 PM 14.0 °F -3.0 °F -0.0 °F 54% 29.74 in 10.0 mi North 18.4 mph 24.2 mph N/A   Scattered Clouds
2:54 PM 15.1 °F -0.6 °F -0.0 °F 51% 29.73 in 10.0 mi North 16.1 mph 21.9 mph N/A   Scattered Clouds
3:54 PM 16.0 °F 1.7 °F -0.0 °F 49% 29.72 in 10.0 mi North 13.8 mph 21.9 mph N/A   Scattered Clouds
4:54 PM 16.0 °F -0.4 °F -0.9 °F 47% 29.74 in 10.0 mi NW 18.4 mph 26.5 mph N/A   Partly Cloudy
5:54 PM 14.0 °F -1.4 °F -0.0 °F 54% 29.79 in 10.0 mi NW 15.0 mph - N/A   Mostly Cloudy
6:54 PM 12.2 °F -1.8 °F -0.4 °F 57% 29.78 in 10.0 mi WNW 11.5 mph 25.3 mph N/A   Scattered Clouds
7:54 PM 12.9 °F -3.4 °F -0.0 °F 56% 29.82 in 10.0 mi WNW 16.1 mph 25.3 mph N/A   Partly Cloudy
8:54 PM 12.0 °F -2.0 °F -0.0 °F 59% 29.84 in 10.0 mi WNW 11.5 mph - N/A   Mostly Cloudy
9:54 PM 12.9 °F -2.8 °F -0.0 °F 56% 29.85 in 10.0 mi NW 15.0 mph 21.9 mph N/A   Mostly Cloudy
10:54 PM 12.0 °F -5.1 °F -0.9 °F 56% 29.87 in 10.0 mi NW 17.3 mph 32.2 mph N/A   Mostly Cloudy
11:54 PM 10.9 °F -7.5 °F -0.9 °F 59% 29.90 in 10.0 mi NW 19.6 mph - N/A   Overcast